Лос Анжелес

США     34°05′32″N   117°57′14″W
темп.,
°C
ветер,
м/с
пор.,
м/с
влажн.,
%
обл.,
%
осадки,
мм/ч
давл.,
гПа
погр.,
м
16 октября, сб
сб1623:00+24св22100 0.0 101647
02:00+23ссв1190 0.0 101616
05:00+21ссв11100 0.0 101513
08:00+21св11110 0.0 101622
11:00+27юв1180 0.0 1015385
14:00+31з2260 0.0 10131192
17:00+30зюз4380 0.0 1012788
20:00+25зюз23140 0.0 1014214
17 октября, вс
вс1723:00+23ю122191 0.0 101564
02:00+21ю113498 0.0 101547
05:00+20ююв1141100 0.0 101448
08:00+19ююз114257 0.0 1015123
11:00+23ююз32280 0.0 1015723
14:00+25юз43190 0.0 10131288
17:00+24юз54230 0.0 10131110
20:00+20зюз33380 0.0 1014634
18 октября, пн
пн1823:00+18юз33510 0.0 1015648
02:00+17ююз22590 0.0 1015677
05:00+16ююз22673 0.0 1014632
08:00+16юз227117 0.0 1015671
11:00+19юз335485 0.1 10151412
14:00+20ююз54439 0.1 10131794
17:00+19ююз544320 0.1 10131265
20:00+17ю32480 0.0 1014872
19 октября, вт
вт1923:00+16юв22560 0.0 1015723
02:00+15ююв22590 0.0 1015603
05:00+15ю22610 0.0 1015463
08:00+15ю11585 0.0 1016410
11:00+18ююз11440 0.0 1017781
14:00+21юз32345 0.0 10151140
17:00+21ююз42419 0.0 1014808
20:00+18юз3353100 0.0 1016537
20 октября, ср
ср2023:00+17ююз2158100 0.0 1017421
02:00+16юз116024 0.0 1017319
05:00+16ю116314 0.0 1017159
08:00+16юз11615 0.0 1018181
11:00+20зюз214589 0.0 1019549
14:00+24зюз323321 0.0 1017859
17:00+23зюз4235100 0.0 1016651
20:00+20зюз334499 0.0 1018313